owner,sensor,date,latitude,longitude,vertical_datum,wind_speed,wind_to_direction,wind_speed_of_gust,qcFlag 
TABS,ioos:station:wmo:42043:1,2002-10-01T00:09:00Z,28.9818,-94.9186,4.0,3.494638751,109.2130478,4.76,'11111222,11111222,11111222' 
TABS,ioos:station:wmo:42043:1,2002-10-01T00:39:00Z,28.9818,-94.9186,4.0,3.680991714,110.8479037,4.87,'11111222,11111222,11111222' 
TABS,ioos:station:wmo:42043:1,2002-10-01T01:09:00Z,28.9818,-94.9186,4.0,3.41849382,108.0643147,4.72,'11111222,11111222,11111222' 
TABS,ioos:station:wmo:42043:1,2002-10-01T01:39:00Z,28.9818,-94.9186,4.0,3.358868857,119.6182853,5.01,'11111222,11111222,11111222' 
TABS,ioos:station:wmo:42043:1,2002-10-01T02:09:00Z,28.9818,-94.9186,4.0,3.309380607,116.56541,4.44,'11111222,11111222,11111222' 
TABS,ioos:station:wmo:42043:1,2002-10-01T02:39:00Z,28.9818,-94.9186,4.0,3.302968362,110.1909653,4.66,'11111222,11111222,11111222' 
TABS,ioos:station:wmo:42043:1,2002-10-01T03:09:00Z,28.9818,-94.9186,4.0,3.495668749,118.9116785,4.85,'11111222,11111222,11111222' 
TABS,ioos:station:wmo:42043:1,2002-10-01T03:39:00Z,28.9818,-94.9186,4.0,3.450289843,114.4855483,4.6,'11111222,11111222,11111222' 
TABS,ioos:station:wmo:42043:1,2002-10-01T04:09:00Z,28.9818,-94.9186,4.0,3.944172917,111.8827054,5.18,'11111222,11111222,11111222' 
TABS,ioos:station:wmo:42043:1,2002-10-01T04:39:00Z,28.9818,-94.9186,4.0,3.802959374,118.2500904,5.13,'11111222,11111222,11111222' 
TABS,ioos:station:wmo:42043:1,2002-10-01T05:09:00Z,28.9818,-94.9186,4.0,4.154190655,119.0951457,5.66,'11111222,11111222,11111222' 
TABS,ioos:station:wmo:42043:1,2002-10-01T05:39:00Z,28.9818,-94.9186,4.0,4.258192105,119.3947539,5.65,'11111222,11111222,11111222' 
TABS,ioos:station:wmo:42043:1,2002-10-01T06:09:00Z,28.9818,-94.9186,4.0,4.527537962,128.3636824,6.19,'11111222,11111222,11111222' 
TABS,ioos:station:wmo:42043:1,2002-10-01T06:39:00Z,28.9818,-94.9186,4.0,4.372241988,127.4730463,6.0,'11111222,11111222,11111222' 
TABS,ioos:station:wmo:42043:1,2002-10-01T07:09:00Z,28.9818,-94.9186,4.0,4.103656906,136.9752451,5.76,'11111222,11111222,11111222' 
TABS,ioos:station:wmo:42043:1,2002-10-01T07:39:00Z,28.9818,-94.9186,4.0,3.901281841,141.6616018,5.44,'11111222,11111222,11111222' 
TABS,ioos:station:wmo:42043:1,2002-10-01T08:09:00Z,28.9818,-94.9186,4.0,4.073548821,134.0056995,5.55,'11111222,11111222,11111222' 
TABS,ioos:station:wmo:42043:1,2002-10-01T08:39:00Z,28.9818,-94.9186,4.0,3.840221348,149.8297606,5.66,'11111222,11111222,11111222' 
TABS,ioos:station:wmo:42043:1,2002-10-01T09:09:00Z,28.9818,-94.9186,4.0,3.892210169,150.2736574,5.29,'11111222,11111222,11111222' 
TABS,ioos:station:wmo:42043:1,2002-10-01T09:39:00Z,28.9818,-94.9186,4.0,3.319096263,154.6705156,5.0,'11111222,11111222,11111222' 
TABS,ioos:station:wmo:42043:1,2002-10-01T10:09:00Z,28.9818,-94.9186,4.0,4.285907139,156.4857088,6.37,'11111222,11111222,11111222' 
TABS,ioos:station:wmo:42043:1,2002-10-01T10:39:00Z,28.9818,-94.9186,4.0,3.914294317,156.5133725,5.6,'11111222,11111222,11111222' 
TABS,ioos:station:wmo:42043:1,2002-10-01T11:09:00Z,28.9818,-94.9186,4.0,3.631707587,154.2113465,5.43,'11111222,11111222,11111222' 
TABS,ioos:station:wmo:42043:1,2002-10-01T11:39:00Z,28.9818,-94.9186,4.0,3.515736054,149.2042204,5.35,'11111222,11111222,11111222' 
TABS,ioos:station:wmo:42043:1,2002-10-01T12:09:00Z,28.9818,-94.9186,4.0,3.367565887,150.4664314,5.26,'11111222,11111222,11111222' 
TABS,ioos:station:wmo:42043:1,2002-10-01T12:39:00Z,28.9818,-94.9186,4.0,3.442920272,147.69502,5.15,'11111222,11111222,11111222' 
TABS,ioos:station:wmo:42043:1,2002-10-01T13:09:00Z,28.9818,-94.9186,4.0,3.16183491,146.611775,4.64,'11111222,11111222,11111222' 
TABS,ioos:station:wmo:42043:1,2002-10-01T13:39:00Z,28.9818,-94.9186,4.0,3.242005552,143.0243616,4.89,'11111222,11111222,11111222' 
TABS,ioos:station:wmo:42043:1,2002-10-01T14:09:00Z,28.9818,-94.9186,4.0,2.940697196,138.722738,4.55,'11111222,11111222,11111222' 
TABS,ioos:station:wmo:42043:1,2002-10-01T14:39:00Z,28.9818,-94.9186,4.0,3.459046111,138.985785,4.96,'11111222,11111222,11111222' 
TABS,ioos:station:wmo:42043:1,2002-10-01T15:09:00Z,28.9818,-94.9186,4.0,3.376181275,147.5811574,5.03,'11111222,11111222,11111222' 
TABS,ioos:station:wmo:42043:1,2002-10-01T15:39:00Z,28.9818,-94.9186,4.0,3.338637447,139.0081109,5.07,'11111222,11111222,11111222' 
TABS,ioos:station:wmo:42043:1,2002-10-01T16:09:00Z,28.9818,-94.9186,4.0,2.960574269,138.28641,4.41,'11111222,11111222,11111222' 
TABS,ioos:station:wmo:42043:1,2002-10-01T16:39:00Z,28.9818,-94.9186,4.0,3.097821815,130.9426621,4.94,'11111222,11111222,11111222' 
TABS,ioos:station:wmo:42043:1,2002-10-01T17:09:00Z,28.9818,-94.9186,4.0,3.170898926,115.999745,4.87,'11111222,11111222,11111222' 
TABS,ioos:station:wmo:42043:1,2002-10-01T17:39:00Z,28.9818,-94.9186,4.0,3.476377425,111.2508767,5.21,'11111222,11111222,11111222' 
TABS,ioos:station:wmo:42043:1,2002-10-01T18:09:00Z,28.9818,-94.9186,4.0,3.94020304,108.3433594,5.48,'11111222,11111222,11111222' 
TABS,ioos:station:wmo:42043:1,2002-10-01T18:39:00Z,28.9818,-94.9186,4.0,3.677295202,115.1019709,5.74,'11111222,11111222,11111222' 
TABS,ioos:station:wmo:42043:1,2002-10-01T19:09:00Z,28.9818,-94.9186,4.0,3.514157082,120.4328283,5.39,'11111222,11111222,11111222' 
TABS,ioos:station:wmo:42043:1,2002-10-01T19:39:00Z,28.9818,-94.9186,4.0,4.026474885,114.9742734,6.39,'11111222,11111222,11111222' 
TABS,ioos:station:wmo:42043:1,2002-10-01T20:09:00Z,28.9818,-94.9186,4.0,3.857939865,123.6904097,5.98,'11111222,11111222,11111222' 
TABS,ioos:station:wmo:42043:1,2002-10-01T20:39:00Z,28.9818,-94.9186,4.0,3.642320689,122.5559907,6.15,'11111222,11111222,11111222' 
TABS,ioos:station:wmo:42043:1,2002-10-01T21:09:00Z,28.9818,-94.9186,4.0,3.398823326,116.56541,5.22,'11111222,11111222,11111222' 
TABS,ioos:station:wmo:42043:1,2002-10-01T21:39:00Z,28.9818,-94.9186,4.0,3.738154625,109.2108548,5.48,'11111222,11111222,11111222' 
TABS,ioos:station:wmo:42043:1,2002-10-01T22:09:00Z,28.9818,-94.9186,4.0,4.220189569,103.7073499,6.5,'11111222,11111222,11111222' 
TABS,ioos:station:wmo:42043:1,2002-10-01T22:39:00Z,28.9818,-94.9186,4.0,3.94068522,99.19978913,5.75,'11111222,11111222,11111222' 
TABS,ioos:station:wmo:42043:1,2002-10-01T23:09:00Z,28.9818,-94.9186,4.0,3.900064102,103.6446899,5.48,'11111222,11111222,11111222' 
TABS,ioos:station:wmo:42043:1,2002-10-01T23:39:00Z,28.9818,-94.9186,4.0,5.156520144,105.8694668,6.89,'11111222,11111222,11111222' 
TABS,ioos:station:wmo:42043:1,2002-10-02T00:09:00Z,28.9818,-94.9186,4.0,5.105653729,104.6354241,7.12,'11111222,11111222,11111222' 
TABS,ioos:station:wmo:42043:1,2002-10-02T00:39:00Z,28.9818,-94.9186,4.0,5.018067357,106.5574536,7.45,'11111222,11111222,11111222' 
TABS,ioos:station:wmo:42043:1,2002-10-02T01:09:00Z,28.9818,-94.9186,4.0,4.743838109,107.67143,6.94,'11111222,11111222,11111222' 
TABS,ioos:station:wmo:42043:1,2002-10-02T01:39:00Z,28.9818,-94.9186,4.0,5.244158655,109.6101028,7.41,'11111222,11111222,11111222' 
TABS,ioos:station:wmo:42043:1,2002-10-02T02:09:00Z,28.9818,-94.9186,4.0,5.079232225,112.5768469,7.32,'11111222,11111222,11111222' 
TABS,ioos:station:wmo:42043:1,2002-10-02T02:39:00Z,28.9818,-94.9186,4.0,4.957459027,114.8077919,6.95,'11111222,11111222,11111222' 
TABS,ioos:station:wmo:42043:1,2002-10-02T03:09:00Z,28.9818,-94.9186,4.0,5.572584679,115.967644,7.76,'11111222,11111222,11111222' 
TABS,ioos:station:wmo:42043:1,2002-10-02T03:39:00Z,28.9818,-94.9186,4.0,3.958092975,117.2127908,5.95,'11111222,11111222,11111222' 
TABS,ioos:station:wmo:42043:1,2002-10-02T04:09:00Z,28.9818,-94.9186,4.0,4.249764699,110.5248589,6.22,'11111222,11111222,11111222' 
TABS,ioos:station:wmo:42043:1,2002-10-02T04:39:00Z,28.9818,-94.9186,4.0,4.405280922,117.1470717,6.75,'11111222,11111222,11111222' 
TABS,ioos:station:wmo:42043:1,2002-10-02T05:09:00Z,28.9818,-94.9186,4.0,4.372241988,119.9077731,6.79,'11111222,11111222,11111222' 
TABS,ioos:station:wmo:42043:1,2002-10-02T05:39:00Z,28.9818,-94.9186,4.0,3.210763149,125.6209926,5.31,'11111222,11111222,11111222' 
TABS,ioos:station:wmo:42043:1,2002-10-02T06:09:00Z,28.9818,-94.9186,4.0,3.985097238,115.7295059,6.27,'11111222,11111222,11111222' 
TABS,ioos:station:wmo:42043:1,2002-10-02T06:39:00Z,28.9818,-94.9186,4.0,4.222096636,117.3543891,6.96,'11111222,11111222,11111222' 
TABS,ioos:station:wmo:42043:1,2002-10-02T07:09:00Z,28.9818,-94.9186,4.0,4.284168531,126.362021,6.49,'11111222,11111222,11111222' 
TABS,ioos:station:wmo:42043:1,2002-10-02T07:39:00Z,28.9818,-94.9186,4.0,3.668705494,113.2809838,5.75,'11111222,11111222,11111222' 
TABS,ioos:station:wmo:42043:1,2002-10-02T08:09:00Z,28.9818,-94.9186,4.0,3.458569068,110.4788606,5.21,'11111222,11111222,11111222' 
TABS,ioos:station:wmo:42043:1,2002-10-02T08:39:00Z,28.9818,-94.9186,4.0,3.061110909,108.6720841,5.33,'11111222,11111222,11111222' 
TABS,ioos:station:wmo:42043:1,2002-10-02T09:09:00Z,28.9818,-94.9186,4.0,3.420526275,111.6151493,5.96,'11111222,11111222,11111222' 
TABS,ioos:station:wmo:42043:1,2002-10-02T09:39:00Z,28.9818,-94.9186,4.0,3.549042124,125.4817146,5.61,'11111222,11111222,11111222' 
TABS,ioos:station:wmo:42043:1,2002-10-02T10:09:00Z,28.9818,-94.9186,4.0,3.078652303,120.2299949,5.17,'11111222,11111222,11111222' 
TABS,ioos:station:wmo:42043:1,2002-10-02T10:39:00Z,28.9818,-94.9186,4.0,3.465905365,116.56541,5.01,'11111222,11111222,11111222' 
TABS,ioos:station:wmo:42043:1,2002-10-02T11:09:00Z,28.9818,-94.9186,4.0,2.848876972,116.0257495,4.34,'11111222,11111222,11111222' 
TABS,ioos:station:wmo:42043:1,2002-10-02T11:39:00Z,28.9818,-94.9186,4.0,2.3187281,109.9201473,3.92,'11111222,11111222,11111222' 
TABS,ioos:station:wmo:42043:1,2002-10-02T12:09:00Z,28.9818,-94.9186,4.0,3.881043674,104.9318032,5.48,'11111222,11111222,11111222' 
TABS,ioos:station:wmo:42043:1,2002-10-02T12:39:00Z,28.9818,-94.9186,4.0,4.218649073,105.2555039,5.97,'11111222,11111222,11111222' 
TABS,ioos:station:wmo:42043:1,2002-10-02T13:09:00Z,28.9818,-94.9186,4.0,4.249341125,103.6115004,6.14,'11111222,11111222,11111222' 
TABS,ioos:station:wmo:42043:1,2002-10-02T13:39:00Z,28.9818,-94.9186,4.0,4.002249368,98.33296153,6.02,'11111222,11111222,11111222' 
TABS,ioos:station:wmo:42043:1,2002-10-02T14:09:00Z,28.9818,-94.9186,4.0,3.702593686,98.69950266,5.92,'11111222,11111222,11111222' 
TABS,ioos:station:wmo:42043:1,2002-10-02T14:39:00Z,28.9818,-94.9186,4.0,3.683924538,87.35464976,5.34,'11111222,11111222,11111222' 
TABS,ioos:station:wmo:42043:1,2002-10-02T15:09:00Z,28.9818,-94.9186,4.0,4.110523081,83.01289088,5.83,'11111222,11111222,11111222' 
TABS,ioos:station:wmo:42043:1,2002-10-02T15:39:00Z,28.9818,-94.9186,4.0,3.83334058,87.60741825,6.47,'11111222,11111222,11111222' 
TABS,ioos:station:wmo:42043:1,2002-10-02T16:09:00Z,28.9818,-94.9186,4.0,3.741617297,88.3148987,5.61,'11111222,11111222,11111222' 
TABS,ioos:station:wmo:42043:1,2002-10-02T16:39:00Z,28.9818,-94.9186,4.0,4.460179369,89.48573057,6.45,'11111222,11111222,11111222' 
TABS,ioos:station:wmo:42043:1,2002-10-02T17:09:00Z,28.9818,-94.9186,4.0,4.851236956,86.09909446,7.23,'11111222,11111222,11111222' 
TABS,ioos:station:wmo:42043:1,2002-10-02T17:39:00Z,28.9818,-94.9186,4.0,5.400092592,86.49605563,7.45,'11111222,11111222,11111222' 
TABS,ioos:station:wmo:42043:1,2002-10-02T18:09:00Z,28.9818,-94.9186,4.0,5.130077972,82.83302067,7.35,'11111222,11111222,11111222' 
TABS,ioos:station:wmo:42043:1,2002-10-02T18:39:00Z,28.9818,-94.9186,4.0,5.564907906,80.58805799,8.08,'11111222,11111222,11111222' 
TABS,ioos:station:wmo:42043:1,2002-10-02T19:09:00Z,28.9818,-94.9186,4.0,5.462490275,82.84855958,7.76,'11111222,11111222,11111222' 
TABS,ioos:station:wmo:42043:1,2002-10-02T19:39:00Z,28.9818,-94.9186,4.0,5.377527313,78.52250899,7.93,'11111222,11111222,11111222' 
TABS,ioos:station:wmo:42043:1,2002-10-02T20:09:00Z,28.9818,-94.9186,4.0,5.665589113,73.06789918,7.92,'11111222,11111222,11111222' 
TABS,ioos:station:wmo:42043:1,2002-10-02T20:39:00Z,28.9818,-94.9186,4.0,5.597231458,71.56467337,8.41,'11111222,11111222,11111222' 
TABS,ioos:station:wmo:42043:1,2002-10-02T21:09:00Z,28.9818,-94.9186,4.0,5.316389752,76.06792242,7.91,'11111222,11111222,11111222' 
TABS,ioos:station:wmo:42043:1,2002-10-02T21:39:00Z,28.9818,-94.9186,4.0,5.378196724,69.87999299,8.32,'11111222,11111222,11111222' 
TABS,ioos:station:wmo:42043:1,2002-10-02T22:09:00Z,28.9818,-94.9186,4.0,6.056962935,64.78844483,8.46,'11111222,11111222,11111222' 
TABS,ioos:station:wmo:42043:1,2002-10-02T22:39:00Z,28.9818,-94.9186,4.0,5.873074152,60.07326115,8.59,'11111222,11111222,11111222' 
TABS,ioos:station:wmo:42043:1,2002-10-02T23:09:00Z,28.9818,-94.9186,4.0,6.458513761,64.30744784,9.27,'11111222,11111222,11111222' 
TABS,ioos:station:wmo:42043:1,2002-10-02T23:39:00Z,28.9818,-94.9186,4.0,6.184084411,57.74874751,9.21,'11111222,11111222,11111222' 
TABS,ioos:station:wmo:42043:1,2002-10-03T00:09:00Z,28.9818,-94.9186,4.0,5.84083042,42.15460506,8.2,'11111222,11111222,11111222' 
TABS,ioos:station:wmo:42043:1,2002-10-03T00:39:00Z,28.9818,-94.9186,4.0,5.747808278,29.95479153,8.51,'11111222,11111222,11111222' 
TABS,ioos:station:wmo:42043:1,2002-10-03T01:09:00Z,28.9818,-94.9186,4.0,6.230008026,36.77763372,8.77,'11111222,11111222,11111222' 
TABS,ioos:station:wmo:42043:1,2002-10-03T01:39:00Z,28.9818,-94.9186,4.0,6.356807375,32.01465196,9.6,'11111222,11111222,11111222' 
TABS,ioos:station:wmo:42043:1,2002-10-03T02:09:00Z,28.9818,-94.9186,4.0,6.342184166,27.41324165,8.86,'11111222,11111222,11111222' 
TABS,ioos:station:wmo:42043:1,2002-10-03T02:39:00Z,28.9818,-94.9186,4.0,5.254883443,23.19832581,7.74,'11111222,11111222,11111222' 
TABS,ioos:station:wmo:42043:1,2002-10-03T03:09:00Z,28.9818,-94.9186,4.0,5.134169845,26.11560591,7.63,'11111222,11111222,11111222' 
TABS,ioos:station:wmo:42043:1,2002-10-03T03:39:00Z,28.9818,-94.9186,4.0,5.74624225,19.09686091,8.64,'11111222,11111222,11111222' 
TABS,ioos:station:wmo:42043:1,2002-10-03T04:09:00Z,28.9818,-94.9186,4.0,5.834869322,21.19940178,9.29,'11111222,11111222,11111222' 
TABS,ioos:station:wmo:42043:1,2002-10-03T04:39:00Z,28.9818,-94.9186,4.0,6.424484415,34.72870461,8.82,'11111222,11111222,11111222' 
TABS,ioos:station:wmo:42043:1,2002-10-03T05:09:00Z,28.9818,-94.9186,4.0,5.654069331,36.58586115,7.96,'11111222,11111222,11111222' 
TABS,ioos:station:wmo:42043:1,2002-10-03T05:39:00Z,28.9818,-94.9186,4.0,5.302952008,33.53994692,7.82,'11111222,11111222,11111222' 
TABS,ioos:station:wmo:42043:1,2002-10-03T06:09:00Z,28.9818,-94.9186,4.0,5.553098234,22.77833687,8.09,'11111222,11111222,11111222' 
TABS,ioos:station:wmo:42043:1,2002-10-03T06:39:00Z,28.9818,-94.9186,4.0,3.987204535,5.324305183,7.09,'11111222,11111222,11111222' 
TABS,ioos:station:wmo:42043:1,2002-10-03T07:09:00Z,28.9818,-94.9186,4.0,4.500399982,359.2358929,6.95,'11111222,11144222,11111222' 
TABS,ioos:station:wmo:42043:1,2002-10-03T07:39:00Z,28.9818,-94.9186,4.0,4.853720223,345.0760112,9.32,'11111222,11111222,11111222' 
TABS,ioos:station:wmo:42043:1,2002-10-03T08:09:00Z,28.9818,-94.9186,4.0,5.088703175,346.5916757,8.35,'11111222,11111222,11111222' 
TABS,ioos:station:wmo:42043:1,2002-10-03T08:39:00Z,28.9818,-94.9186,4.0,4.734817842,342.6746807,7.51,'11111222,11111222,11111222' 
TABS,ioos:station:wmo:42043:1,2002-10-03T09:09:00Z,28.9818,-94.9186,4.0,4.288426285,340.8043668,8.21,'11111222,11111222,11111222' 
TABS,ioos:station:wmo:42043:1,2002-10-03T09:39:00Z,28.9818,-94.9186,4.0,5.357704732,329.3662303,8.6,'11111222,11111222,11111222' 
TABS,ioos:station:wmo:42043:1,2002-10-03T10:09:00Z,28.9818,-94.9186,4.0,5.74624225,340.9027182,10.09,'11111222,11111222,11111222' 
TABS,ioos:station:wmo:42043:1,2002-10-03T10:39:00Z,28.9818,-94.9186,4.0,5.059031528,334.5998033,7.58,'11111222,11111222,11111222' 
TABS,ioos:station:wmo:42043:1,2002-10-03T11:09:00Z,28.9818,-94.9186,4.0,5.441360124,331.4566254,10.32,'11111222,11111222,11111222' 
TABS,ioos:station:wmo:42043:1,2002-10-03T11:39:00Z,28.9818,-94.9186,4.0,6.217716623,332.1983958,11.28,'11111222,11111222,11111222' 
TABS,ioos:station:wmo:42043:1,2002-10-03T12:09:00Z,28.9818,-94.9186,4.0,6.420412759,343.6253958,9.8,'11111222,11111222,11111222' 
TABS,ioos:station:wmo:42043:1,2002-10-03T12:39:00Z,28.9818,-94.9186,4.0,6.116240675,328.2327979,10.46,'11111222,11111222,11111222' 
TABS,ioos:station:wmo:42043:1,2002-10-03T13:09:00Z,28.9818,-94.9186,4.0,6.028241866,322.6167263,10.36,'11111222,11111222,11111222' 
TABS,ioos:station:wmo:42043:1,2002-10-03T13:39:00Z,28.9818,-94.9186,4.0,6.051421321,317.4778094,9.86,'11111222,11111222,11111222' 
TABS,ioos:station:wmo:42043:1,2002-10-03T14:09:00Z,28.9818,-94.9186,4.0,6.938948047,309.0336882,11.03,'11111222,11111222,11111222' 
TABS,ioos:station:wmo:42043:1,2002-10-03T14:39:00Z,28.9818,-94.9186,4.0,6.88410488,316.9423735,11.46,'11111222,11111222,11111222' 
TABS,ioos:station:wmo:42043:1,2002-10-03T15:09:00Z,28.9818,-94.9186,4.0,6.501453684,310.8210518,10.15,'11111222,11111222,11111222' 
TABS,ioos:station:wmo:42043:1,2002-10-03T15:39:00Z,28.9818,-94.9186,4.0,6.156573722,305.2130382,9.91,'11111222,11111222,11111222' 
TABS,ioos:station:wmo:42043:1,2002-10-03T16:09:00Z,28.9818,-94.9186,4.0,5.742273069,307.4285809,9.31,'11111222,11111222,11111222' 
TABS,ioos:station:wmo:42043:1,2002-10-03T16:39:00Z,28.9818,-94.9186,4.0,6.3109508,297.4582577,9.88,'11111222,11111222,11111222' 
TABS,ioos:station:wmo:42043:1,2002-10-03T17:09:00Z,28.9818,-94.9186,4.0,5.413187601,292.2534245,9.91,'11111222,11111222,11111222' 
TABS,ioos:station:wmo:42043:1,2002-10-03T17:39:00Z,28.9818,-94.9186,4.0,5.886951673,284.8624194,9.17,'11111222,11111222,11111222' 
TABS,ioos:station:wmo:42043:1,2002-10-03T18:09:00Z,28.9818,-94.9186,4.0,5.718478819,275.7205494,8.88,'11111222,11111222,11111222' 
TABS,ioos:station:wmo:42043:1,2002-10-03T18:39:00Z,28.9818,-94.9186,4.0,5.100794056,271.0109947,7.27,'11111222,11111222,11111222' 
TABS,ioos:station:wmo:42043:1,2002-10-03T19:09:00Z,28.9818,-94.9186,4.0,5.410332707,269.3645845,7.94,'11111222,11111222,11111222' 
TABS,ioos:station:wmo:42043:1,2002-10-03T19:39:00Z,28.9818,-94.9186,4.0,5.122284647,261.8066415,7.34,'11111222,11111222,11111222' 
TABS,ioos:station:wmo:42043:1,2002-10-03T20:09:00Z,28.9818,-94.9186,4.0,5.185219378,260.2288805,8.14,'11111222,11111222,11111222' 
TABS,ioos:station:wmo:42043:1,2002-10-03T20:39:00Z,28.9818,-94.9186,4.0,4.295346319,257.9052712,6.42,'11111222,11111222,11111222' 
TABS,ioos:station:wmo:42043:1,2002-10-03T21:09:00Z,28.9818,-94.9186,4.0,6.382045127,233.3456522,8.92,'11111222,11111222,11111222' 
TABS,ioos:station:wmo:42043:1,2002-10-03T21:39:00Z,28.9818,-94.9186,4.0,7.376069414,233.3787581,11.48,'11111222,11111222,11111222' 
TABS,ioos:station:wmo:42043:1,2002-10-03T22:09:00Z,28.9818,-94.9186,4.0,6.960323268,229.7202311,10.46,'11111222,11111222,11111222' 
TABS,ioos:station:wmo:42043:1,2002-10-03T22:39:00Z,28.9818,-94.9186,4.0,7.356119901,230.7928882,10.48,'11111222,11111222,11111222' 
TABS,ioos:station:wmo:42043:1,2002-10-03T23:09:00Z,28.9818,-94.9186,4.0,7.026414448,229.2130633,9.64,'11111222,11111222,11111222' 
TABS,ioos:station:wmo:42043:1,2002-10-03T23:39:00Z,28.9818,-94.9186,4.0,7.421219576,226.8019479,10.8,'11111222,11111222,11111222' 
TABS,ioos:station:wmo:42043:1,2002-10-04T00:09:00Z,28.9818,-94.9186,4.0,6.89779675,228.1734119,10.65,'11111222,11111222,11111222' 
TABS,ioos:station:wmo:42043:1,2002-10-04T00:39:00Z,28.9818,-94.9186,4.0,7.212711002,224.5507368,9.98,'11111222,11111222,11111222' 
TABS,ioos:station:wmo:42043:1,2002-10-04T01:09:00Z,28.9818,-94.9186,4.0,7.14927269,224.3767351,9.59,'11111222,11111222,11111222' 
TABS,ioos:station:wmo:42043:1,2002-10-04T01:39:00Z,28.9818,-94.9186,4.0,6.422063531,222.0337448,9.13,'11111222,11111222,11111222' 
TABS,ioos:station:wmo:42043:1,2002-10-04T02:09:00Z,28.9818,-94.9186,4.0,5.480739001,217.8109242,8.04,'11111222,11111222,11111222' 
TABS,ioos:station:wmo:42043:1,2002-10-04T02:39:00Z,28.9818,-94.9186,4.0,5.566515966,213.3476284,8.38,'11111222,11111222,11111222' 
TABS,ioos:station:wmo:42043:1,2002-10-04T03:09:00Z,28.9818,-94.9186,4.0,5.659796816,209.4185548,7.92,'11111222,11111222,11111222' 
TABS,ioos:station:wmo:42043:1,2002-10-04T03:39:00Z,28.9818,-94.9186,4.0,6.41330648,207.0846019,9.41,'11111222,11111222,11111222' 
TABS,ioos:station:wmo:42043:1,2002-10-04T04:09:00Z,28.9818,-94.9186,4.0,6.847547006,207.3884637,9.43,'11111222,11111222,11111222' 
TABS,ioos:station:wmo:42043:1,2002-10-04T04:39:00Z,28.9818,-94.9186,4.0,6.722625975,207.5562429,9.76,'11111222,11111222,11111222' 
TABS,ioos:station:wmo:42043:1,2002-10-04T05:09:00Z,28.9818,-94.9186,4.0,6.582188086,210.6951833,8.99,'11111222,11111222,11111222' 
TABS,ioos:station:wmo:42043:1,2002-10-04T05:39:00Z,28.9818,-94.9186,4.0,6.13424812,212.2134337,8.54,'11111222,11111222,11111222' 
TABS,ioos:station:wmo:42043:1,2002-10-04T06:09:00Z,28.9818,-94.9186,4.0,6.335960858,214.8439835,8.92,'11111222,11111222,11111222' 
TABS,ioos:station:wmo:42043:1,2002-10-04T06:39:00Z,28.9818,-94.9186,4.0,6.292288932,204.4064285,8.91,'11111222,11111222,11111222' 
TABS,ioos:station:wmo:42043:1,2002-10-04T07:09:00Z,28.9818,-94.9186,4.0,5.939848483,197.3369316,8.96,'11111222,11111222,11111222' 
TABS,ioos:station:wmo:42043:1,2002-10-04T07:39:00Z,28.9818,-94.9186,4.0,6.288561044,195.4950228,9.46,'11111222,11111222,11111222' 
TABS,ioos:station:wmo:42043:1,2002-10-04T08:09:00Z,28.9818,-94.9186,4.0,6.813904901,195.0561718,10.06,'11111222,11111222,11111222' 
TABS,ioos:station:wmo:42043:1,2002-10-04T08:39:00Z,28.9818,-94.9186,4.0,6.751273954,195.9921983,9.8,'11111222,11111222,11111222' 
TABS,ioos:station:wmo:42043:1,2002-10-04T09:09:00Z,28.9818,-94.9186,4.0,6.100442607,196.4745163,8.88,'11111222,11111222,11111222' 
TABS,ioos:station:wmo:42043:1,2002-10-04T09:39:00Z,28.9818,-94.9186,4.0,5.605283222,197.0127175,8.95,'11111222,11111222,11111222' 
TABS,ioos:station:wmo:42043:1,2002-10-04T10:09:00Z,28.9818,-94.9186,4.0,4.635903364,198.3569503,6.8,'11111222,11111222,11111222' 
TABS,ioos:station:wmo:42043:1,2002-10-04T10:39:00Z,28.9818,-94.9186,4.0,3.761196618,207.0420845,6.26,'11111222,11111222,11111222' 
TABS,ioos:station:wmo:42043:1,2002-10-04T11:09:00Z,28.9818,-94.9186,4.0,3.735906851,208.2801257,5.92,'11111222,11111222,11111222' 
TABS,ioos:station:wmo:42043:1,2002-10-04T11:39:00Z,28.9818,-94.9186,4.0,3.261656021,203.1064833,5.17,'11111222,11111222,11111222' 
TABS,ioos:station:wmo:42043:1,2002-10-04T12:09:00Z,28.9818,-94.9186,4.0,3.071481727,201.3858884,5.14,'11111222,11111222,11111222' 
TABS,ioos:station:wmo:42043:1,2002-10-04T12:39:00Z,28.9818,-94.9186,4.0,2.513722339,195.6950979,4.16,'11111222,11111222,11111222' 
TABS,ioos:station:wmo:42043:1,2002-10-04T13:09:00Z,28.9818,-94.9186,4.0,2.362794955,195.2127578,4.03,'11111222,11111222,11111222' 
TABS,ioos:station:wmo:42043:1,2002-10-04T13:39:00Z,28.9818,-94.9186,4.0,2.087342808,197.5670668,3.77,'11111222,11111222,11111222' 
TABS,ioos:station:wmo:42043:1,2002-10-04T14:09:00Z,28.9818,-94.9186,4.0,1.764001134,189.4625105,3.37,'11111222,11111222,11111222' 
TABS,ioos:station:wmo:42043:1,2002-10-04T14:39:00Z,28.9818,-94.9186,4.0,1.800361075,171.3750474,3.63,'11111222,11111222,11111222' 
TABS,ioos:station:wmo:42043:1,2002-10-04T15:09:00Z,28.9818,-94.9186,4.0,2.27178344,177.7297661,3.81,'11111222,11111222,11111222' 
TABS,ioos:station:wmo:42043:1,2002-10-04T15:39:00Z,28.9818,-94.9186,4.0,2.192760817,182.8756574,3.94,'11111222,11111222,11111222' 
TABS,ioos:station:wmo:42043:1,2002-10-04T16:09:00Z,28.9818,-94.9186,4.0,2.380525152,178.7966975,3.87,'11111222,11111222,11111222' 
TABS,ioos:station:wmo:42043:1,2002-10-04T16:39:00Z,28.9818,-94.9186,4.0,2.593260496,177.1267787,4.23,'11111222,11111222,11111222' 
TABS,ioos:station:wmo:42043:1,2002-10-04T17:09:00Z,28.9818,-94.9186,4.0,2.123982109,176.4911921,4.13,'11111222,11111222,11111222' 
TABS,ioos:station:wmo:42043:1,2002-10-04T17:39:00Z,28.9818,-94.9186,4.0,2.361228494,164.021521,3.85,'11111222,11111222,11111222' 
TABS,ioos:station:wmo:42043:1,2002-10-04T18:09:00Z,28.9818,-94.9186,4.0,2.839788725,161.9481207,4.4,'11111222,11111222,11111222' 
TABS,ioos:station:wmo:42043:1,2002-10-04T18:39:00Z,28.9818,-94.9186,4.0,3.607991131,176.1861445,5.48,'11111222,11111222,11111222' 